Location: Brac
(44.2539°N, 6.6574°E)
Time: 03:46:48
(UTC+00:00)

Daily predictions for brighter satellites

Satellite Brightness Start Highest point End
(mag) Time Altitude Azimuth Time Altitude Azimuth Time Altitude Azimuth
Lacrosse 5 3.7 02:42:08 28° NE 02:42:08 28° NE 02:45:46 10° E
Cosmos 2360 Rocket 3.4 02:43:03 10° NNW 02:48:23 40° ENE 02:53:41 10° SE
ARIANE 5 R/B 4.1 02:51:02 10° NNE 02:53:20 28° N 02:53:20 28° N
CZ-2C R/B 3.6 02:56:02 10° NNE 02:59:46 37° ENE 02:59:46 37° ENE
CZ-4C R/B 4.5 03:04:30 10° SE 03:06:59 14° ESE 03:09:37 10° ENE
Cosmos 2082 Rocket 4.1 03:11:10 18° NNW 03:11:10 18° NNW 03:13:30 10° N
Cosmos 2333 Rocket 4.1 03:04:54 10° N 03:09:54 29° NE 03:14:52 10° ESE
ADEOS II 4.4 03:10:19 10° NNW 03:11:05 13° NNW 03:11:05 13° NNW
USA 267 3.7 03:10:41 10° NE 03:16:51 46° NNW 03:17:26 45° NW
IDEFIX/ARIANE 42P 4.2 03:14:43 10° N 03:16:53 23° NNW 03:16:53 23° NNW
BREEZE-M DEB (TANK) 3.7 03:22:53 65° NNE 03:22:53 65° NNE 03:25:37 10° ENE
NOSS 3-2 (A) 4.3 03:15:46 10° NW 03:23:15 67° NE 03:31:44 10° SE
Cosmos 1553 Rocket 4.0 03:26:48 62° NW 03:26:48 62° NW 03:32:31 10° N
Cosmos 1417 Rocket 4.4 03:29:15 71° W 03:29:20 71° W 03:35:41 10° N
Cosmos 2219 Rocket 3.7 03:28:02 10° N 03:33:14 36° NE 03:38:25 10° ESE
COSMOS 2487 4.3 03:35:21 30° ENE 03:35:21 30° ENE 03:37:45 10° NE
CENTAUR R/B 3.6 03:32:13 10° NNW 03:40:14 62° NE 03:49:00 10° SE
PAYLOAD A 4.0 03:35:08 10° N 03:40:27 77° WNW 03:40:52 72° WSW
COSMOS 2428 4.2 03:35:39 10° N 03:40:53 35° NE 03:46:05 10° ESE
Cosmos 1606 3.3 03:42:18 55° E 03:42:18 55° E 03:46:06 10° NNE
Cosmos 2315 Rocket 4.3 03:37:23 10° S 03:43:30 65° E 03:49:39 10° NNE
PSLV R/B 3.5 03:42:50 10° NNE 03:47:15 84° ESE 03:47:30 78° SSE
USA 234 3.5 03:44:56 10° SSE 03:51:05 44° SW 03:51:15 44° SW
BREEZE M DEB (TANK) 3.3 03:51:34 32° NNE 03:51:34 32° NNE 03:55:31 10° E
Lacrosse 4 Rocket 1.4 03:51:57 78° NW 03:52:14 87° WSW 03:56:38 10° SSE
Milstar 3 Cent rocket 4.0 03:57:03 13° S 03:57:06 13° S 03:59:19 10° SSE
ATLAS 5 CENTAUR R/B 3.5 03:55:37 12° SSE 03:58:18 24° ESE 04:01:43 10° ENE
ISS -2.0 03:58:45 26° N 03:58:58 26° NNE 04:01:52 10° ENE
Cosmos 1805 Rocket 3.7 03:55:57 10° N 04:00:26 77° E 04:04:53 10° SSE
Cosmos 2221 3.9 04:04:42 25° NNW 04:04:42 25° NNW 04:06:59 10° N
NOSS 3-2 (C) 4.3 03:56:23 10° NW 04:03:56 73° NE 04:12:30 10° SE
Cosmos 2322 3.9 03:58:24 10° NNW 04:04:07 74° ENE 04:09:46 10° SSE
Cosmos 1992 Rocket 3.9 03:59:35 10° NNW 04:04:45 63° WSW 04:09:52 10° S
COSMO-SKYMED 1 4.4 04:01:01 10° SE 04:04:52 32° ENE 04:08:44 10° N
Cosmos 1933 4.3 04:02:32 10° SSE 04:06:23 47° E 04:10:17 10° NNE
Cosmos 2344 3.6 04:06:15 33° WSW 04:09:46 64° NW 04:17:42 10° NE
BREEZE-M DEB (TANK) 3.9 04:08:38 29° NW 04:10:48 59° NNE 04:24:42 10° E
FENGYUN 3A 3.6 04:05:40 10° NNE 04:11:08 81° WNW 04:15:59 13° SSW
Cosmos 1833 4.3 04:12:28 37° WSW 04:14:30 57° WNW 04:20:04 10° NNE
ATLAS 2AS CENTAUR R/B 4.2 04:07:48 10° S 04:15:01 41° ESE 04:22:13 10° NE
S3M 4.4 04:13:57 35° WSW 04:15:19 39° WNW 04:21:05 10° N
Landsat 5 3.3 04:18:43 48° WSW 04:19:04 50° W 04:22:52 10° NNW
CBERS 1 LM4 rocket 4.2 04:14:23 10° NNE 04:19:11 87° WNW 04:23:55 10° SSW
Sich 1 2.9 04:17:49 10° N 04:22:15 83° W 04:26:38 10° S
Cosmos 1666 Rocket 4.0 04:19:33 10° N 04:23:54 62° E 04:28:14 10° SSE
Lacrosse 5 1.8 04:21:22 21° NW 04:24:51 83° SW 04:29:55 10° SE
SJ-6F 4.4 04:21:31 10° N 04:25:39 65° WNW 04:28:32 19° SSW
ALOS 2.3 04:22:22 10° N 04:26:57 56° WNW 04:30:10 19° SW
ADEOS 3.8 04:22:00 10° NNE 04:27:15 72° ESE 04:32:27 10° S
Cosmos 1140 Rocket 4.4 04:23:48 10° S 04:28:48 50° ESE 04:33:49 10° NNE
Meteor 1-31 Rocket 3.0 04:26:32 10° NNE 04:30:25 70° ESE 04:34:14 10° S
Cosmos 2184 Rocket 4.5 04:25:47 10° N 04:32:06 66° E 04:38:25 10° SSE
Cosmos 2360 Rocket 2.8 04:27:14 10° NW 04:32:16 33° WSW 04:37:16 10° SSW
Cosmos 1709 Rocket 4.2 04:26:52 10° NNW 04:32:57 48° W 04:39:01 10° SSW
ARIANE 5 R/B 4.5 04:32:31 10° NW 04:33:42 12° NW 04:33:42 12° NW
CZ-4B R/B 2.4 04:31:34 10° SSE 04:34:32 44° ENE 04:37:29 10° N
Cosmos 2333 4.3 04:29:21 10° NNW 04:35:01 58° WSW 04:40:40 10° S
USA 276 2.2 04:36:12 41° W 04:37:05 63° NNW 04:40:16 10° ENE
Cosmos 909 Rocket 4.0 04:30:58 11° SW 04:37:25 81° NW 04:43:43 10° NNE
Cosmos 2237 Rocket 3.7 04:32:40 10° NNW 04:37:56 37° NE 04:43:09 10° ESE
CZ-2C R/B 3.4 04:34:44 10° NNW 04:38:30 24° WNW 04:39:09 23° WNW
USA 238 DEB 3.9 04:37:04 10° NW 04:44:11 58° WSW 04:51:35 10° SSE
USA 238 3.9 04:37:10 10° NW 04:44:18 58° WSW 04:51:41 10° SSE
H-2A R/B 2.2 04:41:06 10° S 04:45:11 45° W 04:49:12 10° NNW
SeaSat 1 2.4 04:42:05 10° SSE 04:47:00 78° WSW 04:51:58 10° NNW
Cosmos 1437 Rocket 2.8 04:48:16 10° S 04:52:21 89° E 04:56:24 10° N
NOSS 0 Rocket 4.2 04:46:27 10° NNW 04:52:38 71° ENE 04:58:48 10° SE
SKYMED 2 3.5 04:48:27 10° S 04:52:47 81° WSW 04:57:09 10° NNW
Cosmos 1484 Rocket 3.5 04:49:35 10° N 04:52:49 29° WNW 04:54:50 18° WSW
ATLAS 3B R/B 4.0 04:46:27 10° NNW 04:52:59 41° NE 04:59:45 10° ESE
Cosmos 1151 Rocket 2.9 04:49:32 10° SSW 04:53:52 78° W 04:58:10 10° N
CZ-4C R/B 2.0 04:49:30 10° SW 04:54:20 80° NW 05:00:14 10° NE
Cosmos 2333 Rocket 2.4 04:48:52 10° NW 04:54:25 50° WSW 04:59:57 10° S
Cosmos 1782 2.7 04:51:52 10° S 04:55:48 88° W 04:59:47 10° N
Cosmos 2227 Rocket 4.2 04:51:18 10° SSE 04:56:11 31° ESE 05:01:06 10° NE
Cosmos 1633 Rocket 3.0 04:52:29 10° NNW 04:56:53 71° W 05:01:14 10° S
USA 267 4.5 04:53:28 10° NE 04:58:56 29° N 05:04:23 10° WNW
MOS 1 Rocket 3.1 04:56:01 10° S 05:00:19 63° W 05:04:52 10° NNW
Cosmos 1242 Rocket 4.4 04:57:47 10° SSE 05:00:54 33° E 05:04:04 10° NNE
Cosmos 2251 Rocket 4.4 04:59:28 14° WSW 05:03:18 30° WNW 05:08:01 10° N
CZ-4B R/B 4.0 05:01:14 10° N 05:04:45 43° WNW 05:08:12 10° SW
Meteor 1-26 Rocket 4.2 05:00:14 10° SSW 05:05:55 73° WNW 05:11:49 10° N
H-2A R/B 4.0 04:56:34 13° WSW 05:08:46 32° SSW 05:13:07 10° SE
COSMOS 2487 4.2 05:08:44 14° WNW 05:09:39 15° WNW 05:11:47 10° NNW
Cosmos 1689 Rocket 3.5 05:08:46 10° SE 05:11:26 40° ENE 05:14:08 10° N
Cosmos 2297 Rocket 3.2 05:06:08 10° S 05:11:34 52° ESE 05:17:03 10° NE
Meteor PRIRODA 3.6 05:08:37 10° NNE 05:12:22 85° WNW 05:16:06 10° SSW
Nadezhda 1 Rocket 4.0 05:08:56 10° S 05:15:03 87° W 05:21:19 10° N
Cosmos 2219 Rocket 2.7 05:12:00 10° NW 05:17:11 38° WSW 05:22:21 10° S
Cosmos 1954 Rocket 4.2 05:15:27 10° SSW 05:20:43 78° ESE 05:25:59 10° NNE
Cosmos 1980 3.9 05:16:47 10° NNW 05:22:30 83° ENE 05:28:10 10° SSE
COSMOS 2428 3.2 05:19:55 10° NW 05:25:10 39° WSW 05:30:25 10° S
GPS 2-04 Rocket1 4.4 05:23:03 10° SW 05:26:01 22° S 05:29:05 10° SE
SAR-Lupe-1 4.3 05:22:59 10° SSE 05:26:33 76° ENE 05:30:09 10° N
Cosmos 407 Rocket 3.8 05:22:44 10° SW 05:27:40 44° WNW 05:32:35 10° N
Cosmos 1500 3.1 05:24:04 10° NNW 05:27:51 69° W 05:31:38 10° S
Cosmos 1515 Rocket 3.5 05:25:19 10° SSW 05:29:38 69° W 05:34:00 10° N
Cosmos 1328 Rocket 4.0 05:25:56 10° SW 05:29:57 38° WNW 05:34:00 10° N
CZ-3 R/B 3.7 05:19:06 10° WSW 05:30:31 25° S 05:35:29 10° SE
CENTAUR R/B 3.7 05:23:17 10° NW 05:30:54 41° WSW 05:39:01 10° S
Cosmos 2327 Rocket 4.5 05:29:25 10° NNW 05:35:26 63° W 05:41:24 10° S
Cosmos 1190 Rocket 4.3 05:32:10 10° SW 05:37:17 48° WNW 05:42:26 10° N
